全球星 M030星 (GLOBALSTAR M030)

导读

GLOBALSTAR M030是全球星(Globalstar)星座中的一颗低轨通信卫星,由国际电信联盟财团发起,美国劳拉公司为主承包商研制,于1999年7月10日发射升空。它运行在高度约1400公里、倾角52°的近地轨道,作为全球星系统空间段组成部分,面向南纬70°至北纬70°温带区域,提供偏远地区语音、数据、短信和定位等移动通信服务,采用“弯管”中继模式转发地面信号,填补地面蜂窝网络覆盖盲区。

基本信息
目录编号:
25854
目录名称:
GLOBALSTAR M030
国际标识:
1999-037D
轨道中心:
EARTH
卫星名称:
全球星 M030星
卫星全名:
全球星 M030星 (GLOBALSTAR M030)
卫星状态:
在轨 (已飞行9925 天)
发射日期:
1999-07-10 UTC
国别 :
(GLOB)
星等 :
--
轨道信息
数据来源 国际轨道数据 AOE轨道数据
星历时间 2026-09-10T19:52:41+0800
14小时前
查看轨道信息
2026-09-06T23:00:00+0800
4天前
查看轨道信息
半长轴 8266.428km 8266.427km
偏心率 0.0003749 0.0003704
轨道倾角 51.986° 51.986°
近地点辐角 121.428° 114.405°
升交点赤经 172.039° 181.620°
平近点角 238.691° 346.014°
近地点 1885.191km 1885.228km
远地点 1891.391km 1891.352km
周期 124.663分钟 124.663分钟
每日圈数 11.551169 11.551171
详细信息
固有亮度:
5
最大亮度:
7.9
平衡模式:
三轴稳定
覆盖范围:
全球
运营商:
全球星公司
运营商所在国:
美国
使用方式:
暂无
卫星简介
全球星星座由48颗卫星加8颗备份星组成。这些卫星分布在8个倾角为52度的圆形轨道平面上,每个轨道平面6颗卫星,另有1 颗备用星。轨道高度约为1414km,传输时延和处理时延小于300ms,整个系统的覆盖区为南北纬70度以内的地区。该卫星已退役。
2D轨道图
3D轨道图
轨道高度分析图
轨道倾角分析图
轨道综合分析图
查看轨道综合分析图
与全量物体交会距离演化趋势
与全量物体交会风险概率演化趋势